Wind_Speed
12 11 11 12 13 10 7 6 5 4 3 2 2 2 3 3 3 3 3 4 5 5 5 5 4 4 5 5 6 6 6 6 6 6 7 6 6 6 6 6 6 5 5 5 5 5 5 5 4
11 10 11 13 12 8 6 6 5 5 4 4 3 3 3 2 3 2 3 4 4 4 4 4 3 3 4 4 5 5 5 5 5 5 6 6 6 6 5 5 4 5 5 5 5 5 5 4 4
11 10 12 13 8 7 6 6 5 5 5 5 4 3 3 3 3 3 3 3 3 3 3 3 3 3 3 3 3 4 4 4 4 4 4 5 5 5 5 4 4 4 4 5 5 4 5 4 4
11 13 14 10 6 6 6 6 5 5 4 4 4 3 3 3 3 3 3 2 3 3 3 3 3 3 3 3 3 3 3 3 3 3 3 4 4 4 4 4 4 4 4 4 4 4 3 3 3
12 14 11 7 6 6 6 5 5 4 4 4 4 4 3 3 3 3 2 2 2 2 3 3 3 2 2 3 3 3 3 3 3 3 3 3 4 4 4 4 4 4 4 4 4 3 3 2 2
15 12 8 7 6 6 6 5 5 5 5 5 4 5 5 4 3 3 2 2 2 2 2 2 2 2 2 3 3 3 3 2 2 2 2 3 3 4 4 4 4 3 3 3 3 2 2 1 1
14 9 6 5 6 6 5 6 6 5 5 5 5 5 5 4 3 3 3 2 2 2 2 2 2 2 2 2 2 2 2 2 2 2 2 2 3 4 3 4 3 3 3 3 2 2 2 1 2
11 7 5 5 6 7 6 6 6 5 5 4 5 5 5 4 4 3 2 2 2 2 2 2 3 3 2 2 2 3 2 2 2 2 2 3 2 3 3 4 3 3 3 2 2 2 2 2 2
8 6 4 4 4 6 6 6 6 6 6 5 5 5 5 5 4 3 2 2 2 2 2 1 2 3 2 2 2 3 2 2 2 1 2 2 2 2 3 3 3 3 3 2 1 1 2 2 2
6 5 4 5 5 6 6 6 6 7 6 6 5 5 6 5 5 4 3 3 3 3 3 3 3 3 3 3 3 3 3 2 2 1 1 2 2 3 2 3 3 2 2 1 1 1 2 2 3
6 5 5 5 5 5 6 7 7 8 7 6 6 5 6 6 5 5 5 4 3 3 3 4 3 3 3 3 3 3 3 3 3 2 2 2 2 2 2 2 2 1 1 1 2 2 2 2 2
6 5 5 5 6 6 6 6 7 7 8 8 7 6 6 6 6 5 5 5 5 4 4 4 4 4 3 3 3 3 3 3 3 2 2 2 2 1 1 1 1 1 1 1 2 2 2 2 2
5 6 6 6 6 7 6 6 7 8 8 8 7 6 7 7 6 7 6 5 5 4 4 4 4 4 4 4 4 3 3 3 3 3 1 1 2 1 1 1 1 1 1 1 1 3 3 2 2
6 6 6 6 6 6 7 7 8 8 7 7 8 7 7 7 7 7 7 5 4 4 4 4 4 4 4 4 3 3 4 3 3 2 1 1 2 1 2 2 2 2 1 1 1 2 3 2 2
5 6 6 5 6 6 7 8 9 9 9 7 7 8 8 8 8 7 7 6 5 5 5 4 4 4 4 4 4 4 4 4 3 2 2 2 1 1 2 2 2 3 2 2 2 3 3 3 3
4 5 6 6 5 7 7 8 8 10 10 8 8 8 7 8 8 8 7 7 6 6 6 5 5 4 4 5 5 5 5 4 3 2 2 2 2 2 3 3 2 3 3 2 3 3 3 3 3
2 3 5 5 6 7 7 9 9 10 11 9 8 8 7 7 7 8 7 7 7 7 6 6 5 5 5 5 4 5 5 4 3 3 2 2 3 3 3 3 3 3 3 3 3 4 4 4 4
3 3 3 5 4 5 6 7 8 8 10 10 9 8 7 7 6 7 7 7 7 7 7 6 5 5 5 6 5 5 5 4 4 4 3 3 3 3 3 3 4 4 4 4 5 5 5 5 5
6 4 4 4 5 4 6 6 7 7 8 9 8 8 7 7 7 6 6 7 7 7 7 7 6 6 6 6 6 5 5 5 5 4 4 4 4 4 4 4 5 6 5 5 6 6 6 6 6
5 5 6 6 6 5 7 8 7 6 7 8 8 8 7 7 7 7 6 6 6 7 7 7 7 6 6 6 6 6 5 5 4 5 5 5 5 5 6 6 6 6 6 6 7 7 7 7 7
6 7 7 8 8 7 8 9 9 7 6 9 9 8 7 8 7 7 7 6 6 6 7 7 7 7 6 7 7 7 6 6 6 5 5 5 6 6 6 7 7 7 7 7 8 9 9 9 9
8 9 8 9 7 8 9 11 10 10 9 9 9 8 7 7 8 8 8 8 7 7 8 8 8 8 8 8 8 8 7 7 7 7 6 7 7 8 8 8 8 9 9 9 9 10 11 11 11
10 9 9 9 8 8 9 11 12 12 12 9 10 10 9 9 9 9 9 8 8 8 9 9 9 9 9 9 10 9 8 8 8 8 8 9 9 9 10 10 10 10 11 11 11 12 12 13 13
9 8 8 6 7 9 10 11 12 13 13 11 11 11 11 11 11 10 10 9 9 10 11 11 10 10 10 11 11 11 11 10 10 10 10 10 10 11 11 11 12 13 13 13 13 13 14 14 14
10 9 9 9 8 11 10 11 14 15 14 11 11 12 13 12 13 12 11 11 11 13 13 12 12 11 11 12 13 13 13 12 12 12 12 12 12 12 12 13 14 13 14 15 15 15 16 16 16
11 10 10 10 11 11 11 12 14 17 16 15 14 13 15 14 14 13 14 13 14 14 13 13 12 12 13 13 14 14 14 14 13 13 14 14 14 14 14 15 16 16 17 17 18 18 18 18 18
12 12 12 12 13 13 14 13 14 18 18 16 16 16 16 16 15 15 15 15 14 14 13 13 14 14 14 14 15 15 15 15 15 16 16 16 16 16 16 17 17 17 18 19 19 20 20 21 21
15 14 14 12 14 14 14 15 17 19 20 18 17 18 17 16 16 16 16 16 16 15 14 15 15 16 16 16 16 16 16 17 17 18 18 18 18 18 17 18 19 19 20 21 21 21 22 22 23
15 14 14 15 15 15 16 17 19 20 19 19 18 18 19 19 17 16 17 17 17 18 17 17 17 17 17 17 17 18 18 19 20 20 19 20 20 20 20 20 20 21 21 22 23 23 24 24 24
19 18 17 17 17 17 17 20 20 21 19 20 19 18 20 20 20 19 19 18 17 18 19 19 18 19 19 18 19 19 19 21 21 21 21 21 21 21 22 22 23 24 24 24 25 26 26 25 25
Wind_Direction
87 82 80 74 60 54 54 61 54 48 56 70 92 97 93 96 98 98 81 88 89 87 97 105 109 101 97 101 103 102 100 102 108 108 111 112 111 108 112 113 108 106 107 110 107 104 102 96 92
89 82 80 70 56 34 37 49 47 41 44 59 70 71 79 92 91 89 80 89 94 91 96 102 109 102 99 99 103 99 97 98 95 99 104 110 109 108 112 116 108 103 101 105 103 102 99 96 93
91 86 75 63 48 24 21 32 41 44 52 57 58 70 77 83 86 81 76 84 90 94 103 105 106 106 100 99 103 102 98 98 100 98 100 107 109 111 111 113 106 102 98 100 101 102 101 93 88
89 78 63 61 47 24 18 23 26 34 45 49 54 59 77 82 74 71 77 82 94 99 104 104 102 101 93 91 97 102 100 97 102 101 97 111 114 113 116 115 115 108 108 109 105 102 104 89 79
80 69 59 52 43 35 29 25 28 38 40 39 45 42 46 59 62 67 77 77 93 98 97 92 93 91 84 78 83 85 91 97 97 99 104 115 116 113 113 115 118 115 110 109 106 98 95 81 67
75 71 57 42 35 33 30 28 28 39 34 30 33 34 34 43 51 53 52 55 87 90 92 81 85 77 77 71 70 73 76 93 95 91 103 108 117 117 113 112 114 113 113 110 110 107 95 83 57
73 79 66 39 30 38 26 23 21 27 27 22 20 23 28 30 29 23 34 35 48 60 64 71 77 68 61 61 64 68 75 77 83 76 79 90 117 122 117 107 103 114 116 111 105 100 76 53 40
80 77 61 39 34 32 33 24 20 29 21 16 20 22 23 21 13 6 26 41 41 39 41 72 78 62 61 66 59 57 68 69 75 72 76 78 112 126 125 108 106 107 112 108 98 75 57 45 37
78 76 61 26 32 31 33 32 27 28 20 20 19 17 15 15 7 3 35 61 53 46 63 63 67 60 59 51 48 59 65 59 59 71 89 84 103 127 126 108 103 98 95 85 63 54 40 28 16
87 76 55 34 23 29 29 30 28 28 18 18 18 17 18 17 21 31 52 62 57 64 67 61 54 54 56 53 52 60 51 42 52 66 84 101 114 116 117 111 97 88 73 59 29 19 9 1 359
74 58 34 32 25 31 33 32 28 25 17 14 20 24 22 21 25 38 52 56 62 64 59 48 45 39 43 46 40 48 49 43 51 58 74 86 114 122 122 114 103 77 54 49 19 1 356 356 354
62 57 47 32 32 38 39 34 29 26 19 14 18 24 22 21 28 45 52 50 59 58 55 51 51 39 35 37 31 34 46 43 43 50 81 78 98 113 104 113 99 55 43 31 18 10 359 1 5
75 56 47 33 33 35 36 29 28 26 21 16 18 25 29 27 31 49 47 50 58 55 47 49 38 30 24 23 16 16 22 37 35 38 37 65 82 65 61 36 21 12 2 360 5 16 1 354 350
73 52 39 30 25 25 16 20 21 22 28 24 24 26 31 30 31 39 44 51 55 46 42 40 34 22 10 7 5 354 356 9 21 24 20 38 35 16 13 8 355 6 2 10 16 11 1 355 351
62 38 28 23 9 13 9 14 9 15 12 16 22 24 28 28 30 37 40 45 44 39 37 35 31 19 13 9 1 355 356 356 360 16 19 32 14 3 356 349 342 354 1 359 1 5 357 351 346
22 3 359 9 352 2 360 359 10 6 6 8 11 16 20 22 22 30 33 36 38 35 33 33 30 20 11 6 2 5 9 6 5 24 22 22 19 12 7 355 338 344 347 349 353 351 342 339 336
4 336 338 349 353 347 350 346 358 356 354 359 2 8 11 14 15 19 23 25 31 31 28 27 24 18 11 12 12 15 14 11 17 23 19 10 11 1 351 337 348 345 340 332 329 332 334 331 331
228 264 293 321 336 332 328 334 341 351 344 348 351 356 6 7 9 7 9 12 17 18 15 12 10 14 14 12 7 2 358 3 11 13 9 4 2 348 341 340 337 335 335 329 329 329 328 328 332
238 254 279 296 312 322 310 309 327 340 331 331 336 342 351 354 354 357 355 358 4 6 5 8 9 13 16 11 8 2 358 2 3 359 357 358 353 338 326 339 330 325 321 316 322 323 317 317 320
234 264 278 285 287 304 302 295 297 320 320 319 321 328 333 339 347 347 348 346 350 351 355 358 1 0 5 3 1 356 351 347 342 333 334 332 331 331 326 321 320 322 316 313 314 317 314 309 310
244 256 271 280 291 304 298 294 294 302 313 317 317 320 324 328 333 337 343 344 338 339 343 343 342 343 345 345 344 344 341 335 329 324 320 319 317 313 317 316 312 312 315 313 312 310 311 308 305
243 247 258 266 275 286 286 290 295 290 296 305 312 318 309 317 322 323 326 329 328 331 331 330 329 327 327 328 329 329 327 324 320 317 314 313 317 312 307 308 307 306 309 308 308 311 307 308 307
242 242 246 258 269 273 280 285 289 290 290 293 308 313 312 312 311 314 314 314 319 321 322 323 321 320 320 320 321 320 321 317 315 315 313 309 308 307 305 304 303 302 304 306 307 308 307 306 307
257 258 260 265 271 271 276 278 284 283 291 302 307 304 307 307 308 304 304 301 308 313 314 312 311 310 310 311 312 315 317 314 315 313 310 308 306 304 306 304 301 297 297 301 302 304 308 308 306
257 265 280 282 276 276 268 268 270 280 282 286 288 292 295 296 298 298 300 301 304 307 308 307 305 306 307 308 307 306 307 306 308 309 306 306 304 303 304 304 301 296 294 295 296 298 302 304 302
251 247 261 272 272 282 278 273 274 279 281 284 284 286 285 284 287 291 296 300 302 303 304 303 304 306 306 307 308 304 306 305 304 306 306 306 303 302 300 301 302 300 298 296 294 294 298 299 300
249 251 253 266 271 275 272 274 281 283 285 286 284 281 282 283 286 290 291 294 296 299 301 301 303 302 302 302 305 302 303 305 302 304 304 303 302 299 296 298 300 300 299 298 297 296 296 296 297
250 249 251 249 260 267 277 277 274 278 289 290 288 284 280 281 282 286 290 294 294 291 295 299 298 298 299 300 300 299 300 301 301 301 301 300 299 298 296 297 299 298 298 298 297 296 297 296 297
252 255 255 254 252 262 273 279 284 283 284 287 288 284 283 281 283 284 285 286 290 293 295 297 298 298 300 299 298 297 299 299 301 301 300 298 299 299 297 298 298 297 296 297 297 295 296 295 294
248 251 253 257 261 260 267 275 278 279 282 285 282 279 281 285 284 283 282 282 284 288 290 292 293 295 296 297 296 296 295 296 297 297 297 297 298 299 299 297 296 297 297 296 297 296 294 294 293
Height
5900 5900 5899 5899 5899 5899 5899 5899 5898 5897 5897 5896 5895 5895 5894 5894 5895 5897 5894 5893 5893 5893 5894 5894 5894 5894 5895 5895 5895 5895 5895 5895 5895 5896 5896 5896 5897 5897 5898 5898 5898 5899 5899 5899 5900 5900 5900 5900 5901
5902 5903 5902 5901 5902 5901 5901 5900 5900 5899 5898 5897 5896 5896 5896 5895 5896 5895 5894 5895 5895 5895 5895 5895 5895 5896 5896 5896 5896 5896 5896 5897 5897 5897 5897 5898 5898 5898 5899 5899 5899 5900 5900 5900 5900 5901 5901 5901 5901
5904 5904 5903 5903 5904 5904 5903 5902 5901 5901 5900 5899 5898 5898 5898 5897 5897 5896 5896 5896 5896 5896 5896 5896 5897 5897 5897 5897 5897 5897 5897 5898 5898 5898 5898 5899 5899 5899 5900 5900 5900 5901 5901 5901 5901 5902 5902 5902 5902
5906 5905 5906 5907 5907 5906 5905 5904 5903 5902 5901 5901 5900 5900 5899 5898 5898 5898 5898 5897 5897 5897 5898 5898 5898 5898 5898 5899 5898 5898 5898 5898 5899 5899 5899 5899 5900 5900 5901 5901 5901 5902 5902 5902 5902 5903 5903 5903 5903
5907 5906 5909 5909 5908 5908 5907 5905 5904 5904 5903 5902 5902 5901 5900 5900 5900 5899 5899 5899 5898 5899 5899 5899 5899 5899 5899 5900 5899 5899 5899 5899 5900 5900 5900 5900 5901 5901 5901 5902 5902 5902 5903 5903 5903 5904 5903 5904 5903
5908 5910 5912 5911 5910 5909 5908 5907 5906 5905 5904 5903 5903 5902 5901 5901 5901 5900 5900 5900 5900 5899 5899 5900 5900 5900 5900 5900 5900 5900 5900 5900 5900 5901 5901 5901 5901 5902 5902 5903 5903 5903 5903 5904 5904 5904 5904 5904 5904
5910 5913 5914 5913 5912 5911 5910 5908 5908 5907 5906 5905 5904 5904 5903 5902 5902 5901 5901 5901 5901 5900 5900 5901 5901 5901 5901 5901 5901 5901 5901 5901 5901 5902 5902 5902 5902 5903 5903 5903 5903 5904 5904 5904 5905 5905 5904 5904 5904
5915 5916 5915 5915 5914 5913 5912 5910 5909 5908 5907 5907 5906 5905 5904 5904 5903 5902 5902 5902 5901 5901 5901 5901 5902 5902 5902 5902 5902 5902 5902 5902 5902 5902 5902 5902 5903 5903 5904 5904 5904 5904 5905 5905 5905 5905 5905 5905 5905
5918 5918 5917 5917 5915 5915 5914 5912 5911 5909 5908 5908 5907 5906 5905 5904 5903 5903 5902 5902 5902 5902 5902 5902 5903 5903 5903 5903 5903 5903 5903 5903 5903 5903 5903 5903 5904 5904 5904 5905 5905 5905 5906 5906 5906 5906 5906 5906 5906
5919 5920 5920 5919 5917 5916 5915 5913 5912 5910 5910 5909 5908 5907 5906 5905 5904 5903 5903 5903 5903 5903 5903 5903 5904 5904 5904 5904 5904 5904 5904 5903 5904 5904 5904 5904 5905 5905 5905 5905 5906 5906 5906 5906 5907 5907 5907 5907 5906
5921 5922 5921 5920 5919 5918 5917 5915 5913 5912 5911 5910 5909 5908 5907 5906 5906 5905 5904 5904 5904 5904 5904 5904 5904 5904 5904 5904 5904 5905 5905 5904 5904 5904 5904 5905 5905 5905 5905 5906 5906 5907 5907 5907 5907 5907 5907 5907 5907
5924 5924 5923 5922 5920 5919 5919 5917 5916 5914 5913 5911 5910 5909 5908 5907 5906 5906 5905 5905 5905 5905 5905 5905 5905 5905 5905 5905 5905 5905 5905 5905 5905 5905 5905 5905 5906 5906 5906 5906 5907 5907 5907 5907 5907 5907 5907 5907 5907
5925 5925 5925 5923 5922 5921 5920 5918 5917 5916 5914 5912 5911 5910 5909 5908 5907 5907 5907 5907 5907 5907 5907 5907 5906 5907 5906 5906 5906 5906 5906 5905 5905 5905 5905 5906 5906 5907 5907 5907 5907 5907 5907 5907 5907 5907 5907 5907 5906
5926 5926 5926 5925 5924 5922 5921 5919 5918 5916 5915 5914 5913 5912 5911 5910 5909 5908 5908 5908 5908 5908 5908 5908 5907 5907 5907 5907 5907 5906 5906 5906 5906 5906 5906 5906 5906 5907 5907 5907 5907 5907 5907 5907 5907 5907 5907 5907 5906
5927 5927 5927 5926 5925 5923 5922 5921 5919 5918 5917 5915 5914 5913 5913 5912 5911 5910 5910 5909 5909 5909 5909 5908 5908 5908 5908 5908 5907 5907 5907 5907 5907 5907 5906 5907 5907 5907 5907 5907 5907 5907 5907 5907 5907 5907 5907 5906 5906
5928 5928 5928 5928 5926 5925 5925 5922 5920 5919 5918 5917 5916 5915 5914 5913 5912 5911 5911 5910 5910 5910 5910 5909 5909 5909 5909 5908 5908 5907 5907 5907 5907 5907 5907 5907 5907 5907 5907 5907 5908 5907 5907 5907 5907 5907 5907 5906 5906
5929 5929 5930 5930 5928 5926 5925 5923 5921 5921 5919 5918 5917 5916 5915 5914 5914 5913 5912 5912 5911 5911 5911 5910 5910 5910 5910 5909 5908 5908 5908 5908 5908 5908 5908 5908 5908 5908 5908 5908 5908 5908 5907 5907 5907 5907 5906 5906 5906
5930 5930 5930 5930 5929 5928 5926 5925 5923 5921 5921 5920 5919 5917 5916 5915 5915 5914 5914 5913 5913 5912 5912 5911 5911 5911 5910 5910 5909 5909 5909 5909 5909 5908 5908 5908 5908 5908 5908 5908 5908 5908 5907 5907 5907 5906 5906 5905 5905
5929 5930 5929 5930 5929 5928 5927 5926 5924 5923 5922 5921 5920 5918 5917 5916 5915 5915 5914 5914 5913 5913 5913 5912 5912 5911 5911 5910 5910 5910 5910 5909 5909 5909 5909 5908 5908 5908 5907 5908 5907 5907 5907 5907 5906 5906 5905 5905 5904
5928 5930 5930 5929 5929 5928 5927 5925 5923 5923 5922 5921 5920 5919 5918 5916 5916 5915 5914 5914 5914 5914 5913 5912 5912 5912 5911 5911 5910 5910 5910 5909 5909 5909 5909 5908 5908 5908 5907 5907 5907 5907 5906 5906 5905 5905 5904 5903 5903
5928 5930 5930 5928 5927 5928 5927 5926 5923 5922 5921 5920 5919 5919 5918 5917 5916 5915 5915 5914 5914 5914 5913 5913 5912 5912 5912 5911 5911 5910 5910 5909 5909 5908 5908 5908 5908 5907 5907 5907 5906 5906 5906 5905 5904 5904 5903 5902 5902
5927 5928 5928 5927 5926 5926 5927 5925 5923 5921 5919 5919 5918 5917 5917 5916 5916 5915 5915 5914 5914 5913 5913 5913 5912 5912 5911 5911 5910 5910 5909 5909 5908 5908 5907 5907 5907 5906 5906 5905 5905 5904 5904 5903 5903 5902 5901 5900 5899
5924 5924 5925 5925 5925 5926 5925 5925 5923 5920 5918 5917 5916 5916 5915 5915 5915 5915 5914 5913 5913 5913 5912 5912 5911 5911 5910 5910 5909 5909 5908 5907 5907 5906 5906 5906 5906 5905 5904 5903 5903 5902 5902 5901 5900 5899 5898 5897 5897
5922 5923 5923 5923 5923 5925 5924 5924 5923 5919 5917 5916 5915 5915 5915 5915 5914 5914 5913 5912 5912 5912 5911 5911 5910 5910 5909 5908 5908 5907 5907 5906 5906 5905 5905 5904 5904 5903 5902 5900 5900 5900 5900 5899 5898 5897 5896 5894 5893
5921 5922 5922 5922 5923 5923 5923 5922 5920 5917 5917 5915 5916 5915 5915 5915 5913 5912 5912 5911 5910 5910 5910 5909 5909 5908 5907 5907 5906 5905 5905 5904 5903 5903 5902 5902 5901 5901 5900 5899 5898 5897 5896 5896 5895 5894 5893 5891 5890
5918 5920 5922 5922 5921 5921 5919 5919 5918 5914 5914 5914 5914 5914 5913 5912 5911 5910 5910 5909 5909 5908 5907 5907 5906 5906 5905 5904 5904 5903 5902 5901 5901 5900 5900 5899 5898 5898 5897 5896 5895 5894 5893 5892 5891 5890 5889 5888 5886
5916 5917 5919 5919 5919 5919 5918 5916 5915 5912 5912 5911 5911 5911 5910 5909 5907 5907 5907 5906 5905 5905 5905 5905 5904 5903 5903 5902 5901 5900 5899 5899 5898 5897 5897 5896 5895 5894 5893 5893 5892 5890 5889 5888 5887 5886 5885 5884 5882
5914 5914 5915 5915 5916 5916 5915 5914 5912 5910 5909 5909 5908 5906 5906 5904 5904 5904 5904 5903 5903 5902 5901 5902 5901 5900 5900 5899 5898 5897 5896 5896 5895 5894 5893 5892 5891 5890 5889 5888 5887 5886 5885 5884 5883 5882 5880 5879 5878
5911 5911 5912 5912 5912 5913 5913 5913 5909 5906 5905 5905 5904 5903 5903 5901 5900 5901 5901 5901 5900 5899 5898 5899 5898 5897 5896 5896 5895 5894 5893 5892 5891 5890 5889 5888 5887 5886 5885 5883 5882 5881 5880 5879 5878 5876 5875 5873 5872
5906 5907 5908 5909 5909 5909 5909 5910 5905 5903 5901 5900 5899 5900 5899 5898 5897 5896 5897 5897 5897 5896 5895 5894 5893 5893 5892 5892 5891 5890 5889 5888 5887 5886 5885 5884 5882 5881 5880 5878 5877 5875 5874 5873 5871 5870 5868 5867 5865